Simultaneous Nadir Overpasses (SNOs) Predictions

Prediction of SNOs between GOES-15 and NOAA-20 Satellite Orbit:

Table of predicted SNOs for the next 14.0 days since TLE Epoch: 2/11/2023
Index Date Time (GOES-15) GOES-15 Lat,Lon NOAA-20 Lat,Lon Distance(km) Time Diff (sec)
1 02/11/2023 09:55:21 0.06,-128.27 -0.18,-127.25 115.59 80
2 02/12/2023 22:17:16 -0.06,-128.25 -1.04,-132.55 490.53 80
3 02/13/2023 21:55:51 -0.07,-128.23 -0.04,-128.01 25.26 80
4 02/16/2023 09:58:52 0.08,-128.21 0.19,-128.74 60.20 80
5 02/17/2023 09:42:47 0.08,-128.20 -0.82,-124.20 455.06 80
6 02/18/2023 22:04:42 -0.08,-128.16 -0.38,-129.50 152.36 80
7 02/19/2023 21:43:17 -0.08,-128.14 0.63,-124.96 362.51 80
8 02/21/2023 10:05:03 0.09,-128.12 0.56,-130.22 239.12 80
9 02/22/2023 09:48:58 0.09,-128.11 -0.45,-125.69 276.06 80
10 02/23/2023 22:10:53 -0.09,-128.08 -0.72,-130.98 330.88 80
11 02/24/2023 21:49:27 -0.09,-128.06 0.30,-126.45 183.90 80
